Year,Month,Day,Hour,Minute,Value (Times are PST for temperature in C)
2015,06,08,09,02,20.10
2015,06,08,09,03,20.00
2015,06,08,09,04,20.00
2015,06,08,09,05,20.00
2015,06,08,09,06,20.10
2015,06,08,09,07,20.10
2015,06,08,09,08,20.20
2015,06,08,09,09,20.20
2015,06,08,09,10,20.30
2015,06,08,09,11,20.30
2015,06,08,09,12,20.30
2015,06,08,09,13,20.30
2015,06,08,09,14,20.30
2015,06,08,09,15,20.40
2015,06,08,09,16,20.50
2015,06,08,09,17,20.50
2015,06,08,09,18,20.60
2015,06,08,09,19,20.70
2015,06,08,09,20,20.80
2015,06,08,09,21,20.70
2015,06,08,09,22,20.60
2015,06,08,09,23,20.40
2015,06,08,09,24,20.30
2015,06,08,09,25,20.20
2015,06,08,09,26,20.00
2015,06,08,09,27,20.00
2015,06,08,09,28,19.90
2015,06,08,09,29,19.90
2015,06,08,09,30,19.80
2015,06,08,09,31,19.80
2015,06,08,09,32,19.80
2015,06,08,09,33,19.80
2015,06,08,09,34,19.80
2015,06,08,09,35,19.90
2015,06,08,09,36,20.00
2015,06,08,09,37,20.20
2015,06,08,09,38,20.20
2015,06,08,09,39,20.10
2015,06,08,09,40,20.00
2015,06,08,09,41,19.90
2015,06,08,09,42,19.90
2015,06,08,09,43,19.80
2015,06,08,09,44,19.70
2015,06,08,09,45,19.80
2015,06,08,09,46,19.80
2015,06,08,09,47,19.90
2015,06,08,09,48,19.90
2015,06,08,09,49,20.00
2015,06,08,09,50,20.00
2015,06,08,09,51,20.10
2015,06,08,09,52,20.20
2015,06,08,09,53,20.30
2015,06,08,09,54,20.50
2015,06,08,09,55,20.60
2015,06,08,09,56,20.70
2015,06,08,09,57,20.80
2015,06,08,09,58,20.90
2015,06,08,09,59,20.90
2015,06,08,10,00,21.00
2015,06,08,10,01,21.10
2015,06,08,10,02,21.20
2015,06,08,10,03,21.30
2015,06,08,10,04,21.30
2015,06,08,10,05,21.40
2015,06,08,10,06,21.50
2015,06,08,10,07,21.60
2015,06,08,10,08,21.70
2015,06,08,10,09,21.70
2015,06,08,10,10,21.70
2015,06,08,10,11,21.70
2015,06,08,10,12,21.80
2015,06,08,10,13,21.80
2015,06,08,10,14,21.80
2015,06,08,10,15,21.80
2015,06,08,10,16,21.90
2015,06,08,10,17,21.90
2015,06,08,10,18,21.90
2015,06,08,10,19,21.60
2015,06,08,10,20,21.20
2015,06,08,10,21,20.90
2015,06,08,10,22,20.80
2015,06,08,10,23,20.90
2015,06,08,10,24,20.90
2015,06,08,10,25,21.00
2015,06,08,10,26,21.00
2015,06,08,10,27,21.10
2015,06,08,10,28,21.20
2015,06,08,10,29,21.30
2015,06,08,10,30,21.40
2015,06,08,10,31,21.50
2015,06,08,10,32,21.60
2015,06,08,10,33,21.70
2015,06,08,10,34,21.80
2015,06,08,10,35,21.90
2015,06,08,10,36,21.90
2015,06,08,10,37,21.90
2015,06,08,10,38,22.00
2015,06,08,10,39,22.00
2015,06,08,10,40,21.90
2015,06,08,10,41,21.80
2015,06,08,10,42,21.70
2015,06,08,10,43,21.60
2015,06,08,10,44,21.60
2015,06,08,10,45,21.50
2015,06,08,10,46,21.40
2015,06,08,10,47,21.40
2015,06,08,10,48,21.30
2015,06,08,10,49,21.20
2015,06,08,10,50,21.10
2015,06,08,10,51,21.10
2015,06,08,10,52,21.20
2015,06,08,10,53,21.40
2015,06,08,10,54,21.60
2015,06,08,10,55,21.70
2015,06,08,10,56,21.90
2015,06,08,10,57,22.10
2015,06,08,10,58,22.30
2015,06,08,10,59,22.20
2015,06,08,11,00,22.30
2015,06,08,11,01,22.30
2015,06,08,11,02,22.10
2015,06,08,11,03,21.90
2015,06,08,11,04,21.80
2015,06,08,11,05,21.90
2015,06,08,11,06,21.90
2015,06,08,11,07,21.90
2015,06,08,11,08,21.90
2015,06,08,11,09,21.70
2015,06,08,11,10,21.60
2015,06,08,11,11,21.60
2015,06,08,11,12,21.60
2015,06,08,11,13,21.70
2015,06,08,11,14,21.80
2015,06,08,11,15,22.00
2015,06,08,11,16,22.10
2015,06,08,11,17,22.20
2015,06,08,11,18,22.30
2015,06,08,11,19,22.40
2015,06,08,11,20,22.40
2015,06,08,11,21,22.40
2015,06,08,11,22,22.50
2015,06,08,11,23,22.50
2015,06,08,11,24,22.50
2015,06,08,11,25,22.50
2015,06,08,11,26,22.50
2015,06,08,11,27,22.40
2015,06,08,11,28,22.20
2015,06,08,11,29,22.10
2015,06,08,11,30,21.90
2015,06,08,11,31,21.70
2015,06,08,11,32,21.50
2015,06,08,11,33,21.40
2015,06,08,11,34,21.40
2015,06,08,11,35,21.30
2015,06,08,11,36,21.40
2015,06,08,11,37,21.40
2015,06,08,11,38,21.50
2015,06,08,11,39,21.60
2015,06,08,11,40,21.50
2015,06,08,11,41,21.50
2015,06,08,11,42,21.40
2015,06,08,11,43,21.40
2015,06,08,11,44,21.30
2015,06,08,11,45,21.30
2015,06,08,11,46,21.30
2015,06,08,11,47,21.30
2015,06,08,11,48,21.30
2015,06,08,11,49,21.30
2015,06,08,11,50,21.30
2015,06,08,11,51,21.20
2015,06,08,11,52,21.20
2015,06,08,11,53,21.30
2015,06,08,11,54,21.30
2015,06,08,11,55,21.30
2015,06,08,11,56,21.20
2015,06,08,11,57,21.20
2015,06,08,11,58,21.20
2015,06,08,11,59,21.20
2015,06,08,12,00,21.20
2015,06,08,12,01,21.30
2015,06,08,12,02,21.50
2015,06,08,12,03,21.60
2015,06,08,12,04,21.80
2015,06,08,12,05,21.90
2015,06,08,12,06,21.90
2015,06,08,12,07,21.80
2015,06,08,12,08,21.90
2015,06,08,12,09,21.80
2015,06,08,12,10,21.90
2015,06,08,12,11,21.90
2015,06,08,12,12,21.90
2015,06,08,12,13,21.90
2015,06,08,12,14,21.80
2015,06,08,12,15,21.80
2015,06,08,12,16,21.80
2015,06,08,12,17,21.80
2015,06,08,12,18,21.70
2015,06,08,12,19,21.70
2015,06,08,12,20,21.70
2015,06,08,12,21,21.80
2015,06,08,12,22,21.80
2015,06,08,12,23,21.80
2015,06,08,12,24,21.80
2015,06,08,12,25,21.80
2015,06,08,12,26,21.70
2015,06,08,12,27,21.70
2015,06,08,12,28,21.80
2015,06,08,12,29,22.00
2015,06,08,12,30,22.20
2015,06,08,12,31,22.30
2015,06,08,12,32,22.20
2015,06,08,12,33,22.10
2015,06,08,12,34,22.10
2015,06,08,12,35,22.10
2015,06,08,12,36,22.20
2015,06,08,12,37,22.20
2015,06,08,12,38,22.20
2015,06,08,12,39,22.30
2015,06,08,12,40,22.40
2015,06,08,12,41,22.50
2015,06,08,12,42,22.70
2015,06,08,12,43,22.80
2015,06,08,12,44,22.80
2015,06,08,12,45,22.90
2015,06,08,12,46,22.90
2015,06,08,12,47,22.80
2015,06,08,12,48,22.60
2015,06,08,12,49,22.60
2015,06,08,12,50,22.70
2015,06,08,12,51,22.80
2015,06,08,12,52,22.90
2015,06,08,12,53,23.00
2015,06,08,12,54,23.10
2015,06,08,12,55,22.90
2015,06,08,12,56,22.90
2015,06,08,12,57,23.00
2015,06,08,12,58,23.10
2015,06,08,12,59,23.10
2015,06,08,13,00,23.00
2015,06,08,13,01,22.90
2015,06,08,13,02,23.00
2015,06,08,13,03,23.00
2015,06,08,13,04,22.90
2015,06,08,13,05,22.80
2015,06,08,13,06,22.90
2015,06,08,13,07,23.00
2015,06,08,13,08,23.10
2015,06,08,13,09,23.30
2015,06,08,13,10,23.40
2015,06,08,13,11,23.40
2015,06,08,13,12,23.40
2015,06,08,13,13,23.40
2015,06,08,13,14,23.20
2015,06,08,13,15,23.00
2015,06,08,13,16,22.80
2015,06,08,13,17,22.60
2015,06,08,13,18,22.50
2015,06,08,13,19,22.30
2015,06,08,13,20,22.20
2015,06,08,13,21,22.00
2015,06,08,13,22,21.80
2015,06,08,13,23,21.60
2015,06,08,13,24,21.50
2015,06,08,13,25,21.50
2015,06,08,13,26,21.40
2015,06,08,13,27,21.40
2015,06,08,13,28,21.40
2015,06,08,13,29,21.30
2015,06,08,13,30,21.30
2015,06,08,13,31,21.30
2015,06,08,13,32,21.30
2015,06,08,13,33,21.40
2015,06,08,13,34,21.50
2015,06,08,13,35,21.60
2015,06,08,13,36,21.60
2015,06,08,13,37,21.70
2015,06,08,13,38,21.80
2015,06,08,13,39,21.80
2015,06,08,13,40,21.80
2015,06,08,13,41,21.80
2015,06,08,13,42,22.00
2015,06,08,13,43,22.10
2015,06,08,13,44,22.20
2015,06,08,13,45,22.30
2015,06,08,13,46,22.30
2015,06,08,13,47,22.20
2015,06,08,13,48,22.20
2015,06,08,13,49,22.30
2015,06,08,13,50,22.40
2015,06,08,13,51,22.30
2015,06,08,13,52,22.40
2015,06,08,13,53,22.40
2015,06,08,13,54,22.40
2015,06,08,13,55,22.30
2015,06,08,13,56,22.20
2015,06,08,13,57,22.10
2015,06,08,13,58,21.90
2015,06,08,13,59,21.80
2015,06,08,14,00,21.80
2015,06,08,14,01,21.80
2015,06,08,14,02,22.00
2015,06,08,14,03,22.10
2015,06,08,14,04,22.10
2015,06,08,14,05,22.10
2015,06,08,14,06,22.00
2015,06,08,14,07,21.90
2015,06,08,14,08,21.90
2015,06,08,14,09,22.00
2015,06,08,14,10,22.10
2015,06,08,14,11,22.30
2015,06,08,14,12,22.50
2015,06,08,14,13,22.80
2015,06,08,14,14,23.10
2015,06,08,14,15,23.30
2015,06,08,14,16,23.50
2015,06,08,14,17,23.60
2015,06,08,14,18,23.80
2015,06,08,14,19,23.80
2015,06,08,14,20,23.80
2015,06,08,14,21,23.80
2015,06,08,14,22,23.90
2015,06,08,14,23,23.90
2015,06,08,14,24,23.90
2015,06,08,14,25,23.80
2015,06,08,14,26,23.80
2015,06,08,14,27,23.80
2015,06,08,14,28,23.90
2015,06,08,14,29,23.90
2015,06,08,14,30,23.70
2015,06,08,14,31,23.40
2015,06,08,14,32,23.10
2015,06,08,14,33,22.80
2015,06,08,14,34,22.50
2015,06,08,14,35,22.30
2015,06,08,14,36,22.10
2015,06,08,14,37,21.80
2015,06,08,14,38,21.60
2015,06,08,14,39,21.30
2015,06,08,14,40,21.10
2015,06,08,14,41,21.10
2015,06,08,14,42,21.10
2015,06,08,14,43,21.20
2015,06,08,14,44,21.10
2015,06,08,14,45,21.00
2015,06,08,14,46,20.90
2015,06,08,14,47,20.90
2015,06,08,14,48,20.90
2015,06,08,14,49,20.90
2015,06,08,14,50,20.60
2015,06,08,14,51,20.30
2015,06,08,14,52,20.00
2015,06,08,14,53,19.80
2015,06,08,14,54,19.70
2015,06,08,14,55,19.60
2015,06,08,14,56,19.60
2015,06,08,14,57,19.60
2015,06,08,14,58,19.60
2015,06,08,14,59,19.60
2015,06,08,15,00,19.60
2015,06,08,15,01,19.60
2015,06,08,15,02,19.60
2015,06,08,15,03,19.50
2015,06,08,15,04,19.40
2015,06,08,15,05,19.30
2015,06,08,15,06,19.20
2015,06,08,15,07,19.10
2015,06,08,15,08,19.10
2015,06,08,15,09,19.10
2015,06,08,15,10,19.20
2015,06,08,15,11,19.30
2015,06,08,15,12,19.30
2015,06,08,15,13,19.50
2015,06,08,15,14,19.70
2015,06,08,15,15,19.80
2015,06,08,15,16,20.10
2015,06,08,15,17,20.20
2015,06,08,15,18,20.40
2015,06,08,15,19,20.50
2015,06,08,15,20,20.40
2015,06,08,15,21,20.20
2015,06,08,15,22,20.20
2015,06,08,15,23,20.20
2015,06,08,15,24,20.30
2015,06,08,15,25,20.20
2015,06,08,15,26,20.20
2015,06,08,15,27,20.10
2015,06,08,15,28,20.00
2015,06,08,15,29,20.00
2015,06,08,15,30,20.00
2015,06,08,15,31,20.00
2015,06,08,15,32,20.10
2015,06,08,15,33,20.20
2015,06,08,15,34,20.30
2015,06,08,15,35,20.50
2015,06,08,15,36,20.60
2015,06,08,15,37,20.70
2015,06,08,15,38,20.80
2015,06,08,15,39,20.80
2015,06,08,15,40,20.80
2015,06,08,15,41,20.80
2015,06,08,15,42,20.80
2015,06,08,15,43,20.80
2015,06,08,15,44,20.70
2015,06,08,15,45,20.80
2015,06,08,15,46,20.90
2015,06,08,15,47,21.10
2015,06,08,15,48,21.10
2015,06,08,15,49,21.10
2015,06,08,15,50,21.10
2015,06,08,15,51,21.20
2015,06,08,15,52,21.30
2015,06,08,15,53,21.40
2015,06,08,15,54,21.40
2015,06,08,15,55,21.30
2015,06,08,15,56,21.00
2015,06,08,15,57,20.70
2015,06,08,15,58,20.50
2015,06,08,15,59,20.40
2015,06,08,16,00,20.30
2015,06,08,16,01,20.30
2015,06,08,16,02,20.20
2015,06,08,16,03,20.00
2015,06,08,16,04,20.00
2015,06,08,16,05,19.90
2015,06,08,16,06,19.80
2015,06,08,16,07,19.80
2015,06,08,16,08,19.90
2015,06,08,16,09,20.00
2015,06,08,16,10,20.10
2015,06,08,16,11,20.00
2015,06,08,16,12,20.00
2015,06,08,16,13,19.90
2015,06,08,16,14,20.00
2015,06,08,16,15,20.10
2015,06,08,16,16,20.20
2015,06,08,16,17,20.30
2015,06,08,16,18,20.40
2015,06,08,16,19,20.30
2015,06,08,16,20,20.20
2015,06,08,16,21,20.20
2015,06,08,16,22,20.20
2015,06,08,16,23,20.20
2015,06,08,16,24,20.20
2015,06,08,16,25,20.20
2015,06,08,16,26,20.20
2015,06,08,16,27,20.30
2015,06,08,16,28,20.40
2015,06,08,16,29,20.40
2015,06,08,16,30,20.40
2015,06,08,16,31,20.40
2015,06,08,16,32,20.40
2015,06,08,16,33,20.30
2015,06,08,16,34,20.30
2015,06,08,16,35,20.20
2015,06,08,16,36,20.10
2015,06,08,16,37,20.00
2015,06,08,16,38,19.90
2015,06,08,16,39,19.90
2015,06,08,16,40,19.90
2015,06,08,16,41,19.90
2015,06,08,16,42,20.00
2015,06,08,16,43,20.10
2015,06,08,16,44,20.20
2015,06,08,16,45,20.20
2015,06,08,16,46,20.20
2015,06,08,16,47,20.00
2015,06,08,16,48,19.90
2015,06,08,16,49,19.80
2015,06,08,16,50,19.70
2015,06,08,16,51,19.60
2015,06,08,16,52,19.60
2015,06,08,16,53,19.60
2015,06,08,16,54,19.60
2015,06,08,16,55,19.60
2015,06,08,16,56,19.50
2015,06,08,16,57,19.60
2015,06,08,16,58,19.70
2015,06,08,16,59,19.90
2015,06,08,17,00,20.00
2015,06,08,17,01,20.00
2015,06,08,17,02,19.90
2015,06,08,17,03,19.80
2015,06,08,17,04,19.80
2015,06,08,17,05,19.90
2015,06,08,17,06,19.90
2015,06,08,17,07,20.00
2015,06,08,17,08,20.20
2015,06,08,17,09,20.30
2015,06,08,17,10,20.40
2015,06,08,17,11,20.50
2015,06,08,17,12,20.60
2015,06,08,17,13,20.60
2015,06,08,17,14,20.80
2015,06,08,17,15,20.80
2015,06,08,17,16,20.90
2015,06,08,17,17,20.90
2015,06,08,17,18,21.00
2015,06,08,17,19,21.00
2015,06,08,17,20,21.20
2015,06,08,17,21,21.30
2015,06,08,17,22,21.40
2015,06,08,17,23,21.50
2015,06,08,17,24,21.60
2015,06,08,17,25,21.70
2015,06,08,17,26,21.70
2015,06,08,17,27,21.80
2015,06,08,17,28,21.90
2015,06,08,17,29,22.10
2015,06,08,17,30,22.30
2015,06,08,17,31,22.40
2015,06,08,17,32,22.60
2015,06,08,17,33,22.70
2015,06,08,17,34,22.80
2015,06,08,17,35,23.00
2015,06,08,17,36,23.20
2015,06,08,17,37,23.30
2015,06,08,17,38,23.40
2015,06,08,17,39,23.50
2015,06,08,17,40,23.60
2015,06,08,17,41,23.70
2015,06,08,17,42,23.80
2015,06,08,17,43,23.90
2015,06,08,17,44,24.00
2015,06,08,17,45,24.10
2015,06,08,17,46,24.20
2015,06,08,17,47,24.30
2015,06,08,17,48,24.50
2015,06,08,17,49,24.60
2015,06,08,17,50,24.80
2015,06,08,17,51,24.80
2015,06,08,17,52,24.90
2015,06,08,17,53,24.90
2015,06,08,17,54,24.90
2015,06,08,17,55,25.00
2015,06,08,17,56,25.00
2015,06,08,17,57,25.10
2015,06,08,17,58,25.20
2015,06,08,17,59,25.30
2015,06,08,18,00,25.30
2015,06,08,18,01,25.40
2015,06,08,18,02,25.40
2015,06,08,18,03,25.40
2015,06,08,18,04,25.40
2015,06,08,18,05,25.50
2015,06,08,18,06,25.50
2015,06,08,18,07,25.50
2015,06,08,18,08,25.60
2015,06,08,18,09,25.60
2015,06,08,18,10,25.60
2015,06,08,18,11,25.60
2015,06,08,18,12,25.70
2015,06,08,18,13,25.80
2015,06,08,18,14,25.80
2015,06,08,18,15,25.80
2015,06,08,18,16,25.80
2015,06,08,18,17,25.80
2015,06,08,18,18,25.80
2015,06,08,18,19,25.80
2015,06,08,18,20,25.90
2015,06,08,18,21,26.00
2015,06,08,18,22,26.10
2015,06,08,18,23,26.30
2015,06,08,18,24,26.30
2015,06,08,18,25,26.40
2015,06,08,18,26,26.30
2015,06,08,18,27,26.30
2015,06,08,18,28,26.20
2015,06,08,18,29,26.20
2015,06,08,18,30,26.20
2015,06,08,18,31,26.10
2015,06,08,18,32,26.10
2015,06,08,18,33,26.10
2015,06,08,18,34,26.10
2015,06,08,18,35,26.20
2015,06,08,18,36,26.20
2015,06,08,18,37,26.20
2015,06,08,18,38,26.20
2015,06,08,18,39,26.20
2015,06,08,18,40,26.20
2015,06,08,18,41,26.20
2015,06,08,18,42,26.20
2015,06,08,18,43,26.20
2015,06,08,18,44,26.10
2015,06,08,18,45,26.10
2015,06,08,18,46,26.00
2015,06,08,18,47,26.00
2015,06,08,18,48,25.90
2015,06,08,18,49,25.90
2015,06,08,18,50,25.90
2015,06,08,18,51,25.80
2015,06,08,18,52,25.80
2015,06,08,18,53,25.90
2015,06,08,18,54,25.90
2015,06,08,18,55,26.00
2015,06,08,18,56,26.00
2015,06,08,18,57,26.10
2015,06,08,18,58,26.20
2015,06,08,18,59,26.20
2015,06,08,19,00,26.30
2015,06,08,19,01,26.30
2015,06,08,19,02,26.30
2015,06,08,19,03,26.30
2015,06,08,19,04,26.30
2015,06,08,19,05,26.30
2015,06,08,19,06,26.20
2015,06,08,19,07,26.10
2015,06,08,19,08,26.10
2015,06,08,19,09,26.00
2015,06,08,19,10,25.90
2015,06,08,19,11,26.00
2015,06,08,19,12,26.10
2015,06,08,19,13,26.10
2015,06,08,19,14,26.20
2015,06,08,19,15,26.20
2015,06,08,19,16,26.20
2015,06,08,19,17,26.20
2015,06,08,19,18,26.20
2015,06,08,19,19,26.20
2015,06,08,19,20,26.20
2015,06,08,19,21,26.20
2015,06,08,19,22,26.20
2015,06,08,19,23,26.20
2015,06,08,19,24,26.20
2015,06,08,19,25,26.10
2015,06,08,19,26,26.00
2015,06,08,19,27,26.00
2015,06,08,19,28,26.00
2015,06,08,19,29,26.00
2015,06,08,19,30,26.00
2015,06,08,19,31,26.10
2015,06,08,19,32,26.10
2015,06,08,19,33,26.20
2015,06,08,19,34,26.20
2015,06,08,19,35,26.20
2015,06,08,19,36,26.20
2015,06,08,19,37,26.20
2015,06,08,19,38,26.20
2015,06,08,19,39,26.20
2015,06,08,19,40,26.20
2015,06,08,19,41,26.20
2015,06,08,19,42,26.20
2015,06,08,19,43,26.20
2015,06,08,19,44,26.20
2015,06,08,19,45,26.20
2015,06,08,19,46,26.20
